[[{"header":{"parameterUnit":"m.s-1","parameterCategory":2,"la1":30.2991,"la2":30.254,"lo1":-89.0895,"lo2":-89.0444,"dy":0.0017,"dx":0.0017,"nx":28,"ny":28,"refTime":"2025-07-06T21:00:00:Z","depth":"0","parameterNumber":2,"parameterNumberName":"U-component_of_CURRENTS"},"data":[0,0,0,0,0,0,0,0,0,0,0,0,0,0,0,0,0,0,0,0,0,0,0,0,0,0,0,0,0,0,0,0,0,0,0,0,0,0,0,0,0,0,0,0,0,0,0,0,0,0,0,0,0,0,0,0,0,0,0.142,0.1422,0,0.1509,0.1509,0.151,0.1556,0.1556,0.1557,0.1557,0.1561,0.156,0.156,0,0,0,0,0,0,0,0,0,0,0,0,0,0.1248,0.1251,0.142,0.1422,0.1423,0.1509,0.151,0.151,0.1556,0.1556,0.1557,0.1557,0.1561,0.156,0.156,0,0,0,0,0,0,0,0,0,0,0,0,0,0.1324,0.1252,0.142,0.1459,0.1464,0.1509,0.151,0.1511,0.1556,0.1556,0.1557,0.1558,0.1561,0.156,0.156,0.1544,0,0,0.1559,0.1558,0,0,0,0,0,0,0,0,0.132,0.133,0.1452,0.1457,0.1462,0.1526,0.145,0.1519,0.1555,0.1516,0.1557,0.1558,0.1543,0.1544,0.1555,0.1544,0.1545,0.1558,0.1558,0.1558,0.1558,0,0,0,0,0,0,0,0.1315,0.1326,0.1451,0.1454,0.146,0.1458,0.147,0.1463,0.152,0.152,0.1524,0.1541,0.1545,0.1555,0.1555,0.1545,0.1559,0.1558,0.1558,0.1558,0.1654,0.1656,0,0,0,0,0,0,0.1314,0.1322,0.1448,0.1454,0.1396,0.1461,0.1474,0.1501,0.1522,0.1528,0.154,0.1543,0.1556,0.1556,0.1555,0.1685,0.1558,0.1558,0.1557,0.1651,0.1654,0.1657,0,0,0,0,0,0,0.131,0.1325,0.1445,0.1392,0.1408,0.1464,0.1494,0.1503,0.1519,0.1539,0.1543,0.1549,0.1556,0.1556,0.1578,0.1679,0.1557,0.1557,0.1647,0.1652,0.1656,0.1849,0,0,0,0,0,0,0.1305,0.1323,0.1335,0.1393,0.1411,0.1472,0.1494,0.1504,0.153,0.1534,0.1548,0.1549,0.1557,0.1579,0.1578,0.1677,0.1557,0.1644,0.1649,0.1654,0.1839,0.1859,0.1876,0,0,0,0,0,0.1299,0.1315,0.1335,0.135,0.1429,0.1472,0.148,0.1519,0.153,0.1535,0.1564,0.1549,0.1613,0.158,0.1578,0.1679,0.1641,0.1648,0.1654,0.183,0.1855,0.1876,0,0,0,0,0,0,0.1246,0.1323,0.1347,0.1386,0.1426,0.1482,0.1492,0.1517,0.1543,0.1549,0.1562,0.1566,0.1642,0.1607,0.1571,0.1721,0.1633,0.1639,0.1768,0.1791,0.1809,0.1919,0.1556,0,0,0,0,0,0.1241,0.1273,0.134,0.1369,0.1389,0.1438,0.1458,0.1489,0.1525,0.1538,0.1558,0.1592,0.1665,0.168,0.1711,0.1758,0.1806,0.1827,0.1846,0.1862,0.1949,0.2102,0.2145,0.1678,0.1678,0.1678,0,0,0.1227,0.1275,0.1292,0.1359,0.1392,0.1468,0.1451,0.1487,0.1579,0.1531,0.1631,0.1648,0.169,0.1787,0.1816,0.1769,0.2007,0.187,0.1884,0.1965,0.2114,0.216,0.2201,0.1682,0.1682,0.1681,0,0,0.1238,0.1259,0.1304,0.1351,0.1413,0.1461,0.1474,0.1534,0.1584,0.1657,0.1699,0.1792,0.1811,0.1933,0.1985,0.2114,0.2106,0.2084,0.2271,0.2416,0.2458,0.2496,0.2572,0.2615,0.2089,0.2089,0.209,0,0.1219,0.132,0.1316,0.1389,0.1467,0.147,0.1572,0.1621,0.1688,0.1773,0.1704,0.1912,0.1927,0.2167,0.2233,0.2175,0.2211,0.2183,0.2449,0.2488,0.2523,0.2592,0.2638,0.2099,0.2098,0.2097,0.2096,0,0.1292,0.1383,0.141,0.1533,0.1586,0.1666,0.1751,0.1813,0.1857,0.1937,0.2124,0.2165,0.2306,0.2326,0.2329,0.2606,0.2532,0.2461,0.2406,0.2583,0.2641,0.2686,0.2114,0.211,0.2107,0.2105,0,0,0.1272,0.1439,0.1459,0.157,0.1692,0.1753,0.1903,0.208,0.22,0.2273,0.2462,0.2643,0.2658,0.2724,0.2739,0.2883,0.3144,0.279,0.2793,0.2893,0.3427,0.3287,0.3319,0.3106,0.3115,0.3123,0.3352,0,0.1365,0.1559,0.1612,0.1816,0.1951,0.2018,0.2157,0.2296,0.2384,0.2531,0.2672,0.2804,0.2808,0.2852,0.3034,0.3095,0.3276,0.3088,0.3221,0.3226,0.3104,0.3373,0.3271,0.3461,0.3395,0.3402,0.3407,0,0.1481,0.1606,0.1828,0.2044,0.2096,0.2189,0.2427,0.2541,0.2742,0.2799,0.2991,0.3028,0.33,0.3204,0.3551,0.3414,0.3496,0.3538,0.3544,0.3403,0.3173,0.328,0.3542,0.3471,0.3474,0.3469,0.3464,0,0.158,0.1784,0.1982,0.2057,0.2261,0.2362,0.2456,0.2642,0.2738,0.2955,0.3004,0.3307,0.3383,0.3608,0.3702,0.3642,0.4002,0.39,0.3885,0.3869,0.3815,0.3779,0.4065,0.4224,0.4223,0.4223,0.4222,0,0.1756,0.1915,0.2028,0.2148,0.2325,0.2428,0.2602,0.2725,0.2867,0.2981,0.3131,0.325,0.3486,0.3665,0.3799,0.3977,0.4096,0.403,0.398,0.3863,0.3831,0.3782,0.3738,0.4231,0.4229,0.4228,0.4226,0,0.1913,0.2002,0.2203,0.2363,0.2394,0.2517,0.2617,0.2715,0.284,0.2979,0.3033,0.3246,0.3475,0.3677,0.3977,0.4038,0.4145,0.4263,0.407,0.3996,0.3879,0.3846,0.3934,0.3843,0.4333,0.4332,0.4331,0,0.206,0.2173,0.2298,0.2347,0.2417,0.2542,0.2595,0.2708,0.277,0.2968,0.3023,0.3252,0.3405,0.3768,0.3958,0.4205,0.4119,0.4203,0.4123,0.3971,0.3901,0.3692,0.3594,0.4109,0.4107,0.4104,0.4103,0,0.2288,0.228,0.2392,0.2442,0.2492,0.2546,0.2614,0.2645,0.276,0.2853,0.2986,0.3115,0.3432,0.3644,0.391,0.4041,0.4011,0.4158,0.4118,0.3905,0.3597,0.3443,0.3789,0.4083,0.4085,0.4086,0.4087,0.4088,0.2395,0.2447,0.2482,0.253,0.2552,0.2524,0.2536,0.2578,0.264,0.2747,0.2902,0.3066,0.3389,0.3756,0.3835,0.3914,0.3876,0.3899,0.3918,0.3752,0.3559,0.3821,0.3955,0.3956,0.3957,0.3958,0.3959,0,0.2498,0.2495,0.2547,0.2545,0.2508,0.2516,0.2515,0.2494,0.2514,0.2671,0.2781,0.3091,0.3322,0.356,0.3779,0.3724,0.3563,0.3666,0.3436,0.3388,0.3773,0.3654,0.3586,0.3586,0.3586,0.3586,0.3586,0.3586,0.2545,0.2565,0.254,0.2475,0.2444,0.2356,0.2328,0.2326,0.2408,0.2538,0.2692,0.2873,0.3226,0.3609,0.3672,0.3599,0.3375,0.3235,0.3219,0.3571,0.3594,0.3616,0.3498,0.3399,0.3399,0.2694,0.2689,0.2686]},{"header":{"parameterUnit":"m.s-1","parameterCategory":2,"la1":30.2991,"la2":30.254,"lo1":-89.0895,"lo2":-89.0444,"dy":0.0017,"dx":0.0017,"nx":28,"ny":28,"refTime":"2025-07-06T21:00:00:Z","depth":"0","parameterNumber":3,"parameterNumberName":"V-component_of_CURRENTS"},"data":[0,0,0,0,0,0,0,0,0,0,0,0,0,0,0,0,0,0,0,0,0,0,0,0,0,0,0,0,0,0,0,0,0,0,0,0,0,0,0,0,0,0,0,0,0,0,0,0,0,0,0,0,0,0,0,0,0,0,0.0391,0.0392,0,0.04,0.04,0.04,0.0402,0.0402,0.0402,0.0402,0.0385,0.0385,0.0384,0,0,0,0,0,0,0,0,0,0,0,0,0,0.0292,0.0294,0.0391,0.0392,0.0392,0.04,0.04,0.04,0.0402,0.0402,0.0402,0.0402,0.0385,0.0385,0.0384,0,0,0,0,0,0,0,0,0,0,0,0,0,0.0321,0.0295,0.0391,0.0394,0.0395,0.04,0.04,0.04,0.0402,0.0402,0.0402,0.0402,0.0386,0.0385,0.0384,0.038,0,0,0.0382,0.0382,0,0,0,0,0,0,0,0,0.032,0.0325,0.0394,0.0394,0.0394,0.04,0.0359,0.0392,0.0402,0.0399,0.0402,0.0402,0.0388,0.0387,0.0389,0.038,0.0379,0.0382,0.0382,0.0382,0.0381,0,0,0,0,0,0,0,0.0318,0.0324,0.0394,0.0394,0.0394,0.0366,0.0371,0.0365,0.0393,0.0399,0.04,0.0401,0.0388,0.0389,0.0388,0.0379,0.0382,0.0382,0.0381,0.0381,0.0441,0.0443,0,0,0,0,0,0,0.0323,0.0323,0.0394,0.0395,0.0357,0.0368,0.0373,0.0398,0.0393,0.0393,0.0401,0.0401,0.0391,0.0389,0.0388,0.0493,0.0382,0.0381,0.0381,0.0439,0.0442,0.0444,0,0,0,0,0,0,0.0321,0.033,0.0394,0.0357,0.0364,0.037,0.0398,0.0398,0.0402,0.0395,0.0394,0.0404,0.0391,0.0389,0.0411,0.0488,0.0381,0.038,0.0437,0.044,0.0443,0.0633,0,0,0,0,0,0,0.0318,0.033,0.0347,0.0359,0.0366,0.0406,0.0398,0.0398,0.0403,0.0403,0.0398,0.0396,0.039,0.0412,0.041,0.0485,0.038,0.0435,0.0438,0.0442,0.0625,0.0643,0.0658,0,0,0,0,0,0.0315,0.0346,0.0349,0.0357,0.0392,0.0406,0.0408,0.041,0.0403,0.0411,0.0422,0.0396,0.0435,0.0413,0.041,0.0488,0.0433,0.0437,0.0442,0.0617,0.0639,0.0658,0,0,0,0,0,0,0.0324,0.0349,0.0353,0.0394,0.0401,0.0407,0.0415,0.0411,0.0424,0.0426,0.0417,0.0417,0.0472,0.0436,0.0412,0.0511,0.0431,0.0435,0.0565,0.0585,0.0602,0.0686,0.0379,0,0,0,0,0,0.0332,0.0355,0.0372,0.0402,0.0407,0.0408,0.0413,0.0415,0.0427,0.0432,0.044,0.045,0.0486,0.0499,0.0508,0.0552,0.053,0.0597,0.0614,0.0628,0.0693,0.0709,0.0735,0.0459,0.0459,0.0459,0,0,0.0342,0.0359,0.0373,0.0403,0.0408,0.0462,0.0412,0.0425,0.0498,0.0427,0.052,0.0503,0.0507,0.0579,0.0599,0.0562,0.0687,0.0634,0.0647,0.0705,0.0717,0.0744,0.0768,0.0462,0.0461,0.0461,0,0,0.0376,0.0391,0.0421,0.0446,0.046,0.0481,0.0488,0.0505,0.0537,0.0599,0.0593,0.0633,0.0652,0.0707,0.073,0.0835,0.0772,0.0812,0.0978,0.0991,0.1016,0.1037,0.1016,0.1034,0.0825,0.0825,0.0825,0,0.0386,0.0463,0.043,0.0481,0.0545,0.0503,0.0591,0.0614,0.0646,0.0715,0.065,0.0765,0.074,0.0896,0.0937,0.0885,0.0857,0.0907,0.1018,0.1039,0.1057,0.1031,0.1048,0.0835,0.0834,0.0833,0.0832,0,0.0448,0.0534,0.0557,0.0637,0.0679,0.0745,0.0788,0.0843,0.0867,0.0908,0.1032,0.1006,0.1088,0.1074,0.1045,0.1186,0.1109,0.1035,0.0978,0.1098,0.106,0.1075,0.0849,0.0845,0.0842,0.084,0,0,0.0444,0.0583,0.0598,0.0714,0.0792,0.0852,0.0979,0.1116,0.1235,0.1242,0.1407,0.1455,0.1423,0.1447,0.1401,0.1417,0.149,0.1295,0.1291,0.1296,0.1499,0.1387,0.139,0.1425,0.1429,0.1433,0.1411,0,0.0531,0.0707,0.0743,0.0957,0.1086,0.1135,0.1274,0.1378,0.1441,0.1566,0.1576,0.1667,0.1569,0.1593,0.1613,0.1523,0.1543,0.1503,0.1367,0.1365,0.1268,0.141,0.1309,0.1278,0.1425,0.1427,0.1429,0,0.0617,0.0742,0.0964,0.1223,0.1275,0.1379,0.1629,0.1736,0.1876,0.1916,0.2004,0.1969,0.2046,0.189,0.1872,0.1842,0.1718,0.1622,0.1616,0.1474,0.1283,0.1186,0.1298,0.1059,0.145,0.1449,0.1447,0,0.072,0.0933,0.1144,0.1222,0.145,0.1576,0.1694,0.1856,0.1971,0.212,0.2174,0.2255,0.2248,0.2173,0.1965,0.1926,0.1878,0.1783,0.1582,0.1568,0.1446,0.1416,0.1341,0.1787,0.1787,0.1788,0.1788,0,0.0886,0.1067,0.1206,0.1336,0.1574,0.1688,0.1926,0.2044,0.2193,0.2323,0.2339,0.2414,0.2307,0.2239,0.2071,0.1877,0.1959,0.1674,0.159,0.15,0.1477,0.1228,0.1109,0.1787,0.1787,0.1787,0.1787,0,0.104,0.1135,0.1371,0.158,0.1642,0.1811,0.2021,0.2171,0.229,0.2447,0.2484,0.2536,0.2468,0.232,0.2164,0.1976,0.1657,0.1706,0.1593,0.1498,0.1108,0.1004,0.091,0.0772,0.1542,0.154,0.1538,0,0.1179,0.1297,0.1488,0.1581,0.1685,0.1899,0.2031,0.2206,0.2327,0.2502,0.2565,0.2568,0.2569,0.2323,0.2025,0.1767,0.1561,0.1464,0.14,0.1136,0.0957,0.0907,0.0794,0.1291,0.1287,0.1284,0.1281,0,0.1391,0.1402,0.1546,0.169,0.1832,0.2009,0.2191,0.2289,0.2465,0.2573,0.267,0.2692,0.2488,0.2217,0.1862,0.1645,0.1272,0.1389,0.1164,0.0834,0.0732,0.0537,0.1223,0.1253,0.1256,0.1258,0.1259,0.126,0.1481,0.1561,0.1645,0.1795,0.1936,0.207,0.2194,0.2335,0.2492,0.2632,0.2692,0.2734,0.2383,0.1919,0.1587,0.0949,0.1049,0.0759,0.0677,0.0668,0.049,0.1108,0.1003,0.1005,0.1006,0.1007,0.1008,0,0.155,0.1599,0.1739,0.188,0.2,0.2072,0.2258,0.2343,0.246,0.2622,0.2703,0.2582,0.2046,0.1558,0.0757,0.0319,0.0166,0.0095,0.0,-0.0066,0.0516,0.0454,0.0167,0.0167,0.0167,0.0167,0.0168,0.0168,0.158,0.1663,0.1707,0.1874,0.1969,0.21,0.2182,0.2301,0.2434,0.2567,0.2639,0.2734,0.2367,0.0961,-0.0055,-0.0289,-0.0587,-0.0639,-0.0745,-0.038,-0.0324,-0.0271,-0.0356,-0.0809,-0.081,-0.1321,-0.1326,-0.133]}],[{"header":{"parameterUnit":"m.s-1","parameterCategory":2,"la1":30.2991,"la2":30.254,"lo1":-89.0895,"lo2":-89.0444,"dy":0.0017,"dx":0.0017,"nx":28,"ny":28,"refTime":"2025-07-06T21:00:00:Z","depth":"2","parameterNumber":2,"parameterNumberName":"U-component_of_CURRENTS"},"data":[0,0,0,0,0,0,0,0,0,0,0,0,0,0,0,0,0,0,0,0,0,0,0,0,0,0,0,0,0,0,0,0,0,0,0,0,0,0,0,0,0,0,0,0,0,0,0,0,0,0,0,0,0,0,0,0,0,0,0.1105,0.1106,0,0.1181,0.1182,0.1183,0.12,0.1199,0.1199,0.1198,0.1311,0.1315,0.1318,0,0,0,0,0,0,0,0,0,0,0,0,0,0.1054,0.1055,0.1105,0.1106,0.1107,0.1181,0.1182,0.1183,0.12,0.1199,0.1198,0.1198,0.131,0.1314,0.1319,0,0,0,0,0,0,0,0,0,0,0,0,0,0.1099,0.1055,0.1105,0.1123,0.1126,0.1181,0.1182,0.1184,0.12,0.1199,0.1198,0.1197,0.1309,0.1314,0.1319,0.1372,0,0,0.1336,0.1338,0,0,0,0,0,0,0,0,0.1096,0.1101,0.112,0.1122,0.1125,0.1179,0.1206,0.1248,0.12,0.1173,0.1198,0.1197,0.1271,0.1279,0.1296,0.1377,0.1382,0.1336,0.1339,0.1342,0.1343,0,0,0,0,0,0,0,0.1093,0.1098,0.1136,0.1121,0.1124,0.1155,0.116,0.1214,0.1228,0.1175,0.1176,0.1184,0.1272,0.1291,0.1299,0.1384,0.1336,0.1341,0.1344,0.1346,0.1616,0.162,0,0,0,0,0,0,0.1078,0.1095,0.1134,0.1138,0.1107,0.1157,0.1162,0.1164,0.1226,0.1234,0.1184,0.1184,0.1282,0.1293,0.1303,0.1456,0.1342,0.1347,0.135,0.1612,0.1617,0.1621,0,0,0,0,0,0,0.1077,0.1081,0.1131,0.1118,0.1126,0.1158,0.116,0.1166,0.1198,0.1233,0.1241,0.1212,0.1282,0.1296,0.1389,0.1457,0.1349,0.1354,0.1607,0.1614,0.1619,0.1705,0,0,0,0,0,0,0.1075,0.108,0.1083,0.1117,0.1126,0.1182,0.1161,0.1168,0.1203,0.1203,0.126,0.1268,0.1282,0.1381,0.1395,0.1462,0.1358,0.1602,0.161,0.1617,0.1697,0.1713,0.1727,0,0,0,0,0,0.1073,0.1084,0.1082,0.1087,0.1126,0.1184,0.1193,0.1213,0.1205,0.1235,0.1283,0.1267,0.1437,0.1389,0.1404,0.1474,0.1599,0.1608,0.1617,0.1691,0.171,0.1726,0,0,0,0,0,0,0.107,0.1088,0.1086,0.1102,0.1146,0.1187,0.1212,0.1227,0.1287,0.1291,0.1316,0.1331,0.1439,0.1451,0.1397,0.1577,0.1517,0.1529,0.1568,0.1587,0.1601,0.1562,0.1363,0,0,0,0,0,0.1068,0.1076,0.111,0.1128,0.1147,0.1183,0.1208,0.1229,0.1281,0.1305,0.1352,0.1412,0.1487,0.1529,0.159,0.1687,0.1676,0.1745,0.176,0.1772,0.1754,0.1811,0.1828,0.165,0.165,0.165,0,0,0.107,0.1083,0.1087,0.1128,0.1157,0.1219,0.1197,0.1249,0.1314,0.1311,0.142,0.1465,0.1525,0.1637,0.1687,0.1656,0.1823,0.1783,0.1793,0.1767,0.1822,0.1839,0.1854,0.1656,0.1655,0.1654,0,0,0.1098,0.1094,0.112,0.1163,0.1215,0.1249,0.1269,0.1333,0.1371,0.1477,0.1499,0.1582,0.1695,0.1752,0.1794,0.1929,0.1897,0.1959,0.2004,0.2062,0.2076,0.2088,0.2105,0.2118,0.1968,0.1968,0.1968,0,0.1103,0.1139,0.1143,0.1197,0.124,0.1269,0.1335,0.1391,0.1485,0.1526,0.1526,0.1699,0.175,0.1878,0.1927,0.196,0.1966,0.1927,0.2077,0.2088,0.2099,0.2114,0.2126,0.1973,0.1973,0.1972,0.1972,0,0.1163,0.12,0.1227,0.1299,0.135,0.1412,0.1483,0.1549,0.1596,0.1646,0.1774,0.1845,0.1937,0.1986,0.1998,0.2117,0.2088,0.2084,0.2018,0.2121,0.2132,0.2143,0.1981,0.1979,0.1977,0.1976,0,0,0.1165,0.1248,0.1262,0.1306,0.1408,0.1455,0.1568,0.1668,0.1727,0.1826,0.191,0.205,0.2059,0.2105,0.2142,0.2191,0.2284,0.2167,0.2168,0.2158,0.2383,0.226,0.226,0.2302,0.2305,0.2307,0.2362,0,0.1219,0.1309,0.1352,0.1467,0.1523,0.1587,0.1682,0.1775,0.1848,0.1939,0.2013,0.2111,0.2117,0.2162,0.2221,0.2266,0.2317,0.2267,0.2306,0.2306,0.2163,0.2271,0.214,0.2169,0.2373,0.2375,0.2376,0,0.1281,0.1329,0.1427,0.1531,0.1562,0.1639,0.1764,0.1851,0.1972,0.2028,0.2121,0.2167,0.2278,0.2255,0.2374,0.234,0.2367,0.2387,0.239,0.2241,0.2204,0.2101,0.2181,0.2395,0.2393,0.2392,0.2391,0,0.1278,0.1392,0.1461,0.1503,0.1624,0.1683,0.1754,0.1874,0.1942,0.2074,0.2126,0.225,0.2313,0.2377,0.2422,0.2411,0.251,0.2509,0.2423,0.2413,0.2288,0.2262,0.2586,0.2586,0.2586,0.2586,0.2586,0,0.1325,0.1386,0.1458,0.1501,0.1581,0.1673,0.1768,0.1853,0.197,0.2044,0.2157,0.223,0.2345,0.2412,0.2444,0.2456,0.2541,0.2432,0.2428,0.2316,0.2293,0.247,0.2455,0.2588,0.2588,0.2587,0.2587,0,0.1322,0.1376,0.1446,0.1548,0.158,0.1632,0.1752,0.1811,0.1933,0.2031,0.2076,0.2234,0.2316,0.239,0.2489,0.2472,0.2502,0.2483,0.2316,0.229,0.236,0.235,0.2405,0.2401,0.2398,0.2396,0.2394,0,0.1331,0.1362,0.1441,0.1462,0.1509,0.1589,0.1639,0.1776,0.184,0.2022,0.2062,0.2186,0.2242,0.2325,0.234,0.2362,0.2431,0.2232,0.2187,0.2355,0.2347,0.2342,0.2336,0.2074,0.207,0.2066,0.2063,0,0.132,0.1335,0.137,0.1408,0.1456,0.1519,0.1607,0.1654,0.181,0.1885,0.2001,0.206,0.2149,0.2125,0.2138,0.213,0.2214,0.215,0.2415,0.2115,0.2041,0.2032,0.2039,0.2029,0.2032,0.2035,0.2037,0.2038,0.1274,0.1278,0.1301,0.1344,0.1394,0.1449,0.148,0.1571,0.1647,0.1747,0.1853,0.1888,0.1955,0.1896,0.1869,0.1863,0.1991,0.1942,0.1956,0.1974,0.1901,0.1822,0.1755,0.1757,0.1758,0.1759,0.1761,0,0.1192,0.121,0.1238,0.128,0.1313,0.1377,0.1453,0.1468,0.1518,0.1595,0.1652,0.1546,0.1554,0.1627,0.1581,0.1577,0.1583,0.1518,0.1549,0.1584,0.1614,0.1524,0.1278,0.1276,0.1274,0.1273,0,0,0.114,0.1131,0.116,0.119,0.1237,0.1266,0.13,0.1319,0.1366,0.1325,0.1331,0.1444,0.1562,0.1388,0.1388,0.1339,0.1439,0.1281,0.1674,0.1744,0.1772,0.187,0.1771,0,0,0,0,0]},{"header":{"parameterUnit":"m.s-1","parameterCategory":2,"la1":30.2991,"la2":30.254,"lo1":-89.0895,"lo2":-89.0444,"dy":0.0017,"dx":0.0017,"nx":28,"ny":28,"refTime":"2025-07-06T21:00:00:Z","depth":"2","parameterNumber":3,"parameterNumberName":"V-component_of_CURRENTS"},"data":[0,0,0,0,0,0,0,0,0,0,0,0,0,0,0,0,0,0,0,0,0,0,0,0,0,0,0,0,0,0,0,0,0,0,0,0,0,0,0,0,0,0,0,0,0,0,0,0,0,0,0,0,0,0,0,0,0,0,-0.0694,-0.0694,0,-0.0643,-0.0642,-0.0642,-0.0612,-0.0612,-0.0612,-0.0612,-0.0577,-0.0576,-0.0575,0,0,0,0,0,0,0,0,0,0,0,0,0,-0.0669,-0.067,-0.0694,-0.0694,-0.0693,-0.0643,-0.0642,-0.0641,-0.0612,-0.0612,-0.0612,-0.0612,-0.0577,-0.0576,-0.0574,0,0,0,0,0,0,0,0,0,0,0,0,0,-0.0653,-0.067,-0.0694,-0.0674,-0.0672,-0.0643,-0.0642,-0.0641,-0.0612,-0.0612,-0.0612,-0.0612,-0.0577,-0.0576,-0.0574,-0.0561,0,0,-0.0569,-0.0569,0,0,0,0,0,0,0,0,-0.0654,-0.0653,-0.0677,-0.0676,-0.0673,-0.0636,-0.062,-0.0616,-0.0611,-0.0632,-0.0612,-0.0612,-0.06,-0.0596,-0.0582,-0.056,-0.0558,-0.0569,-0.0568,-0.0568,-0.0567,0,0,0,0,0,0,0,-0.0655,-0.0655,-0.0671,-0.0677,-0.0674,-0.0635,-0.0633,-0.0619,-0.0614,-0.063,-0.0628,-0.0627,-0.0598,-0.0584,-0.0581,-0.0558,-0.0569,-0.0568,-0.0567,-0.0566,-0.0513,-0.0513,0,0,0,0,0,0,-0.0672,-0.0657,-0.0673,-0.067,-0.0667,-0.0636,-0.0634,-0.0646,-0.0613,-0.0609,-0.0627,-0.0626,-0.0586,-0.0583,-0.058,-0.0525,-0.0568,-0.0566,-0.0565,-0.0513,-0.0513,-0.0512,0,0,0,0,0,0,-0.0672,-0.0674,-0.0675,-0.0663,-0.0661,-0.0637,-0.065,-0.0645,-0.0624,-0.0611,-0.0607,-0.0611,-0.0586,-0.0582,-0.0558,-0.0525,-0.0566,-0.0564,-0.0514,-0.0513,-0.0513,-0.044,0,0,0,0,0,0,-0.0671,-0.0675,-0.068,-0.0665,-0.0662,-0.0645,-0.065,-0.0644,-0.0624,-0.0622,-0.0596,-0.0593,-0.0586,-0.0561,-0.0557,-0.0524,-0.0563,-0.0515,-0.0514,-0.0513,-0.0443,-0.0437,-0.0431,0,0,0,0,0,-0.0671,-0.0675,-0.0681,-0.0683,-0.0675,-0.0645,-0.0638,-0.062,-0.0623,-0.0603,-0.0593,-0.0594,-0.0553,-0.0559,-0.0554,-0.052,-0.0515,-0.0514,-0.0513,-0.0445,-0.0438,-0.0432,0,0,0,0,0,0,-0.0667,-0.0673,-0.0679,-0.0687,-0.0664,-0.064,-0.0622,-0.0616,-0.059,-0.0589,-0.0583,-0.0578,-0.0548,-0.0551,-0.0558,-0.0506,-0.0536,-0.0534,-0.0486,-0.0479,-0.0473,-0.0463,-0.0562,0,0,0,0,0,-0.0673,-0.0675,-0.067,-0.0671,-0.0662,-0.0642,-0.0628,-0.0615,-0.0596,-0.0584,-0.0567,-0.0556,-0.054,-0.0524,-0.0514,-0.0479,-0.0513,-0.0459,-0.0453,-0.0448,-0.044,-0.0481,-0.0478,-0.0509,-0.0509,-0.0509,0,0,-0.0671,-0.0674,-0.0675,-0.0669,-0.0651,-0.0618,-0.0632,-0.0604,-0.0568,-0.0586,-0.0532,-0.0536,-0.0531,-0.0493,-0.0479,-0.0487,-0.0456,-0.0447,-0.0442,-0.0436,-0.048,-0.0477,-0.0474,-0.0508,-0.0508,-0.0508,0,0,-0.0648,-0.0671,-0.0654,-0.0635,-0.0612,-0.0597,-0.0589,-0.056,-0.0539,-0.0498,-0.0505,-0.0493,-0.0458,-0.0447,-0.0439,-0.04,-0.0432,-0.0395,-0.0343,-0.0383,-0.0381,-0.0379,-0.0413,-0.0415,-0.0383,-0.0383,-0.0383,0,-0.064,-0.0628,-0.0639,-0.0609,-0.0584,-0.0586,-0.0542,-0.0519,-0.0482,-0.0465,-0.0473,-0.0439,-0.0435,-0.0396,-0.0376,-0.0383,-0.0414,-0.0364,-0.0375,-0.0374,-0.0374,-0.0409,-0.0413,-0.038,-0.038,-0.038,-0.0381,0,-0.0596,-0.0581,-0.0566,-0.0532,-0.0505,-0.0471,-0.0446,-0.0416,-0.0401,-0.0386,-0.0353,-0.0355,-0.0335,-0.0331,-0.0332,-0.0316,-0.0342,-0.037,-0.039,-0.0367,-0.0405,-0.041,-0.0374,-0.0376,-0.0377,-0.0378,0,0,-0.0582,-0.0543,-0.0534,-0.0501,-0.0463,-0.0431,-0.0377,-0.033,-0.0295,-0.0279,-0.024,-0.022,-0.0239,-0.0233,-0.0244,-0.0266,-0.0285,-0.0304,-0.0307,-0.0332,-0.0372,-0.0392,-0.04,-0.0318,-0.0318,-0.0319,-0.0398,0,-0.0535,-0.0472,-0.046,-0.038,-0.0342,-0.0324,-0.0268,-0.0231,-0.0212,-0.0179,-0.0195,-0.0166,-0.0196,-0.0182,-0.0211,-0.0268,-0.0295,-0.0261,-0.0395,-0.0399,-0.0416,-0.0405,-0.0365,-0.0432,-0.0403,-0.0404,-0.0404,0,-0.0484,-0.0449,-0.0374,-0.0301,-0.0281,-0.0231,-0.0157,-0.0109,-0.008,-0.0069,-0.0067,-0.0085,-0.0093,-0.0135,-0.0224,-0.0202,-0.0274,-0.033,-0.0336,-0.0382,-0.0428,-0.0453,-0.0442,-0.0413,-0.0412,-0.0411,-0.0411,0,-0.0458,-0.0381,-0.032,-0.0296,-0.022,-0.0172,-0.0123,-0.0075,-0.0021,-0.0003,0.0021,-0.0016,-0.0017,-0.0119,-0.0222,-0.0225,-0.0345,-0.0371,-0.0461,-0.0464,-0.0469,-0.0471,-0.0448,-0.0448,-0.0447,-0.0447,-0.0447,0,-0.0413,-0.0359,-0.0301,-0.0266,-0.0172,-0.0132,-0.0036,-0.0001,0.0055,0.0115,0.008,0.0104,-0.0014,-0.009,-0.0208,-0.0345,-0.0341,-0.0448,-0.0484,-0.0442,-0.0441,-0.0457,-0.0457,-0.045,-0.045,-0.0449,-0.0448,0,-0.0387,-0.0355,-0.0278,-0.0195,-0.0157,-0.0088,0.0035,0.0101,0.0137,0.021,0.0225,0.0197,0.0091,-0.0048,-0.0212,-0.0312,-0.0454,-0.0508,-0.0444,-0.0471,-0.0549,-0.0545,-0.0612,-0.0613,-0.0614,-0.0615,-0.0616,0,-0.0369,-0.0333,-0.0231,-0.0167,-0.012,-0.0014,0.007,0.014,0.0213,0.0266,0.0306,0.0237,0.0183,-0.0065,-0.0252,-0.0466,-0.0491,-0.0555,-0.0554,-0.0537,-0.0566,-0.0559,-0.0554,-0.0533,-0.0533,-0.0533,-0.0533,0,-0.0335,-0.0304,-0.0237,-0.0109,-0.0011,0.01,0.0219,0.0283,0.0362,0.0398,0.0425,0.0379,0.0167,-0.0028,-0.03,-0.0437,-0.0519,-0.0564,-0.057,-0.0495,-0.0469,-0.0495,-0.0491,-0.0534,-0.0534,-0.0534,-0.0534,-0.0534,-0.0304,-0.025,-0.0155,-0.0026,0.0092,0.0224,0.032,0.0413,0.0506,0.0571,0.0505,0.0452,0.0229,-0.0107,-0.0327,-0.0526,-0.0545,-0.0605,-0.0602,-0.06,-0.0574,-0.0552,-0.0626,-0.0627,-0.0627,-0.0628,-0.0628,0,-0.0255,-0.0179,-0.0067,0.0096,0.0239,0.0289,0.044,0.0515,0.0613,0.0629,0.0623,0.0415,0.0191,-0.0046,-0.0337,-0.0543,-0.0539,-0.0598,-0.0542,-0.0541,-0.0541,-0.051,-0.0546,-0.0546,-0.0546,-0.0546,0,0,-0.022,-0.0108,-0.0044,0.0201,0.033,0.0514,0.0601,0.067,0.0714,0.0702,0.0678,0.0576,0.0276,0.0084,-0.0201,-0.0356,-0.0393,-0.0386,-0.0435,-0.0336,-0.0332,-0.0536,-0.0486,0,0,0,0,0]}],[{"header":{"parameterUnit":"m.s-1","parameterCategory":2,"la1":30.2991,"la2":30.254,"lo1":-89.0895,"lo2":-89.0444,"dy":0.0017,"dx":0.0017,"nx":28,"ny":28,"refTime":"2025-07-06T21:00:00:Z","depth":"4","parameterNumber":2,"parameterNumberName":"U-component_of_CURRENTS"},"data":[0,0,0,0,0,0,0,0,0,0,0,0,0,0,0,0,0,0,0,0,0,0,0,0,0,0,0,0,0,0,0,0,0,0,0,0,0,0,0,0,0,0,0,0,0,0,0,0,0,0,0,0,0,0,0,0,0,0,0.0618,0.0618,0,0.063,0.063,0.063,0.0649,0.0649,0.065,0.065,0.0678,0.0678,0.0678,0,0,0,0,0,0,0,0,0,0,0,0,0,0.0634,0.0634,0.0618,0.0618,0.0619,0.063,0.063,0.063,0.0649,0.0649,0.065,0.065,0.0678,0.0678,0.0678,0,0,0,0,0,0,0,0,0,0,0,0,0,0.0634,0.0634,0.0618,0.063,0.0631,0.063,0.063,0.063,0.0649,0.0649,0.065,0.0651,0.0677,0.0678,0.0678,0.0669,0,0,0.068,0.068,0,0,0,0,0,0,0,0,0.0634,0.0633,0.0628,0.0629,0.063,0.0639,0.0646,0.0644,0.0649,0.0641,0.065,0.0651,0.0666,0.0668,0.0667,0.067,0.0672,0.068,0.068,0.0681,0.0681,0,0,0,0,0,0,0,0.0634,0.0633,0.0622,0.0628,0.063,0.0642,0.0643,0.0645,0.065,0.0642,0.0644,0.0646,0.0667,0.0667,0.0668,0.0672,0.068,0.068,0.0681,0.0681,0.0757,0.0759,0,0,0,0,0,0,0.0632,0.0633,0.0622,0.0622,0.0635,0.0641,0.0642,0.0635,0.065,0.0652,0.0645,0.0647,0.0666,0.0667,0.0669,0.0756,0.0681,0.0681,0.0681,0.0756,0.0758,0.076,0,0,0,0,0,0,0.0632,0.063,0.0621,0.0629,0.0629,0.064,0.0633,0.0635,0.065,0.0652,0.0655,0.0659,0.0666,0.0668,0.0691,0.0753,0.0681,0.0682,0.0754,0.0756,0.0759,0.0867,0,0,0,0,0,0,0.0632,0.063,0.0641,0.0629,0.0628,0.0636,0.0632,0.0635,0.0649,0.0652,0.0665,0.0667,0.0667,0.069,0.0692,0.0753,0.0682,0.0751,0.0755,0.0758,0.0862,0.0873,0.0883,0,0,0,0,0,0.0633,0.0637,0.0641,0.0641,0.0637,0.0637,0.0638,0.0648,0.065,0.0662,0.0672,0.0668,0.0713,0.0691,0.0693,0.0756,0.075,0.0754,0.0758,0.0857,0.0871,0.0883,0,0,0,0,0,0,0.0649,0.0639,0.0644,0.0646,0.0651,0.0641,0.0657,0.0655,0.0671,0.0686,0.0677,0.068,0.0726,0.0716,0.0693,0.0786,0.0735,0.074,0.0811,0.0824,0.0835,0.0785,0.0683,0,0,0,0,0,0.0657,0.0656,0.0654,0.0655,0.0664,0.0663,0.0669,0.0678,0.0682,0.0691,0.0698,0.0715,0.0739,0.076,0.077,0.0813,0.0772,0.0857,0.0868,0.0878,0.0838,0.0817,0.0822,0.0772,0.0772,0.0772,0,0,0.0661,0.0657,0.0656,0.0659,0.0666,0.068,0.0668,0.0689,0.0707,0.0691,0.0727,0.0746,0.0754,0.081,0.0832,0.0815,0.0884,0.0882,0.0891,0.0844,0.0822,0.0826,0.083,0.0775,0.0774,0.0774,0,0,0.0667,0.067,0.0679,0.0687,0.0708,0.0708,0.0716,0.0727,0.0746,0.0783,0.0782,0.0817,0.0861,0.0873,0.0886,0.0953,0.0932,0.0992,0.1021,0.1005,0.1008,0.101,0.1018,0.1019,0.101,0.101,0.101,0,0.0678,0.0681,0.0683,0.07,0.071,0.072,0.074,0.0757,0.0776,0.0794,0.0813,0.0865,0.0882,0.0924,0.0965,0.0977,0.0971,0.0979,0.1017,0.1018,0.1018,0.1024,0.1025,0.1016,0.1015,0.1015,0.1014,0,0.0688,0.0704,0.0711,0.0731,0.0746,0.0763,0.0788,0.0819,0.0851,0.0866,0.0922,0.0944,0.0971,0.1011,0.1015,0.1047,0.1046,0.1026,0.0981,0.1029,0.1034,0.1033,0.1024,0.1022,0.102,0.1019,0,0,0.067,0.0711,0.0716,0.0737,0.0767,0.0777,0.0822,0.0854,0.0884,0.0933,0.0964,0.1025,0.1038,0.1048,0.107,0.1066,0.11,0.1062,0.1059,0.1064,0.109,0.1085,0.1082,0.1099,0.1098,0.1098,0.1113,0,0.0679,0.0715,0.0732,0.0768,0.079,0.0819,0.0853,0.0893,0.0935,0.0972,0.1005,0.1048,0.1055,0.1096,0.1093,0.1092,0.1091,0.1098,0.1043,0.1041,0.1026,0.1078,0.1095,0.1111,0.1111,0.111,0.111,0,0.0676,0.0706,0.0744,0.0795,0.0809,0.0835,0.0891,0.0925,0.0978,0.1018,0.1056,0.1078,0.1105,0.1096,0.1092,0.1106,0.1094,0.1082,0.1082,0.1018,0.103,0.1039,0.1106,0.1106,0.1106,0.1107,0.1107,0,0.0652,0.0707,0.0738,0.0753,0.0814,0.0849,0.0886,0.0943,0.0979,0.1041,0.108,0.1102,0.1137,0.1108,0.1118,0.1111,0.1096,0.1082,0.1055,0.1057,0.1006,0.1002,0.1037,0.1036,0.1036,0.1036,0.1036,0,0.0635,0.0664,0.0736,0.0753,0.0802,0.0851,0.0903,0.095,0.1012,0.1051,0.11,0.113,0.1138,0.1148,0.1123,0.1102,0.1106,0.1047,0.105,0.1062,0.1064,0.1008,0.1004,0.1037,0.1037,0.1037,0.1037,0,0.0594,0.0641,0.0676,0.0755,0.0788,0.0822,0.091,0.0941,0.1018,0.1069,0.1094,0.1161,0.1186,0.1189,0.1163,0.1125,0.109,0.1072,0.1114,0.1121,0.1059,0.1062,0.1035,0.1035,0.1034,0.1034,0.1034,0,0.0571,0.0585,0.0664,0.069,0.073,0.0795,0.0837,0.093,0.0965,0.1077,0.1092,0.1161,0.1195,0.1162,0.1163,0.1129,0.1104,0.1085,0.103,0.1048,0.1054,0.1057,0.1059,0.1034,0.1034,0.1034,0.1034,0,0.0517,0.0543,0.0573,0.0637,0.0686,0.0738,0.0813,0.084,0.0945,0.1019,0.108,0.1108,0.1143,0.1141,0.1143,0.1102,0.1096,0.1082,0.1081,0.1028,0.1046,0.1053,0.1056,0.1033,0.1033,0.1033,0.1033,0,0.0461,0.0466,0.051,0.0567,0.0626,0.0677,0.0724,0.0789,0.0849,0.0984,0.0998,0.1074,0.1138,0.1128,0.1117,0.1104,0.1069,0.1013,0.1015,0.1016,0.1002,0.1021,0.0994,0,0,0,0,0,0.04,0.0413,0.0446,0.0508,0.0567,0.0618,0.0705,0.0753,0.0863,0.0886,0.095,0.0985,0.1018,0.1049,0.1027,0.1085,0.1056,0.1054,0.0988,0.1028,0.1029,0.1015,0,0,0,0,0,0,0.0359,0.0379,0.0418,0.0459,0.0496,0.0564,0.0621,0.0692,0.0719,0.0827,0.0846,0.0931,0.0963,0.1019,0.1008,0.1017,0.0957,0.1102,0.11,0.1028,0.1029,0.1029,0.1015,0,0,0,0,0]},{"header":{"parameterUnit":"m.s-1","parameterCategory":2,"la1":30.2991,"la2":30.254,"lo1":-89.0895,"lo2":-89.0444,"dy":0.0017,"dx":0.0017,"nx":28,"ny":28,"refTime":"2025-07-06T21:00:00:Z","depth":"4","parameterNumber":3,"parameterNumberName":"V-component_of_CURRENTS"},"data":[0,0,0,0,0,0,0,0,0,0,0,0,0,0,0,0,0,0,0,0,0,0,0,0,0,0,0,0,0,0,0,0,0,0,0,0,0,0,0,0,0,0,0,0,0,0,0,0,0,0,0,0,0,0,0,0,0,0,-0.0144,-0.0144,0,-0.016,-0.016,-0.016,-0.0211,-0.0212,-0.0213,-0.0214,-0.0241,-0.0241,-0.0241,0,0,0,0,0,0,0,0,0,0,0,0,0,-0.0192,-0.0191,-0.0144,-0.0144,-0.0144,-0.016,-0.016,-0.016,-0.0211,-0.0212,-0.0213,-0.0214,-0.0241,-0.0241,-0.0241,0,0,0,0,0,0,0,0,0,0,0,0,0,-0.0187,-0.019,-0.0144,-0.017,-0.0172,-0.016,-0.016,-0.0161,-0.0211,-0.0212,-0.0213,-0.0215,-0.0241,-0.0241,-0.0241,-0.0211,0,0,-0.024,-0.024,0,0,0,0,0,0,0,0,-0.0187,-0.0186,-0.0166,-0.0168,-0.0171,-0.0183,-0.0187,-0.0177,-0.021,-0.0198,-0.0214,-0.0215,-0.0221,-0.0222,-0.0225,-0.0212,-0.0213,-0.024,-0.024,-0.024,-0.024,0,0,0,0,0,0,0,-0.0188,-0.0186,-0.0152,-0.0166,-0.0169,-0.0192,-0.0193,-0.0186,-0.0203,-0.0199,-0.0202,-0.0201,-0.0223,-0.0225,-0.0226,-0.0214,-0.024,-0.024,-0.024,-0.024,-0.0293,-0.0294,0,0,0,0,0,0,-0.0178,-0.0185,-0.0152,-0.0153,-0.0181,-0.019,-0.0191,-0.0179,-0.0203,-0.0207,-0.0199,-0.0203,-0.0224,-0.0226,-0.0227,-0.0303,-0.024,-0.024,-0.024,-0.0291,-0.0293,-0.0295,0,0,0,0,0,0,-0.0179,-0.0175,-0.0151,-0.0169,-0.0167,-0.0187,-0.0174,-0.0179,-0.0187,-0.0202,-0.0208,-0.0203,-0.0225,-0.0227,-0.0238,-0.03,-0.024,-0.0239,-0.0289,-0.0292,-0.0294,-0.0384,0,0,0,0,0,0,-0.018,-0.0175,-0.0174,-0.0168,-0.0166,-0.0147,-0.0173,-0.0178,-0.0182,-0.0187,-0.0207,-0.0211,-0.0227,-0.0238,-0.0238,-0.0299,-0.0239,-0.0287,-0.029,-0.0293,-0.0379,-0.0389,-0.0398,0,0,0,0,0,-0.0182,-0.0164,-0.0173,-0.017,-0.016,-0.0146,-0.0148,-0.0169,-0.0181,-0.0182,-0.0205,-0.021,-0.0258,-0.0238,-0.0237,-0.03,-0.0286,-0.029,-0.0293,-0.0375,-0.0387,-0.0397,0,0,0,0,0,0,-0.0187,-0.0167,-0.0178,-0.0157,-0.0157,-0.0155,-0.0154,-0.0163,-0.018,-0.0192,-0.0207,-0.0213,-0.0254,-0.0248,-0.0226,-0.0324,-0.0281,-0.0285,-0.0344,-0.0355,-0.0364,-0.0316,-0.0239,0,0,0,0,0,-0.0185,-0.0166,-0.016,-0.0145,-0.0141,-0.0147,-0.0147,-0.0161,-0.0169,-0.0178,-0.0193,-0.0222,-0.0264,-0.0284,-0.03,-0.0332,-0.0304,-0.0378,-0.0387,-0.0395,-0.0356,-0.0376,-0.0383,-0.0306,-0.0306,-0.0306,0,0,-0.0183,-0.0169,-0.0161,-0.0145,-0.0144,-0.0145,-0.0151,-0.0148,-0.0166,-0.0176,-0.0203,-0.0239,-0.0274,-0.0332,-0.0352,-0.0339,-0.0408,-0.04,-0.0407,-0.0361,-0.038,-0.0387,-0.0394,-0.0309,-0.0308,-0.0308,0,0,-0.0161,-0.0154,-0.0136,-0.0136,-0.0134,-0.0141,-0.0138,-0.0142,-0.0163,-0.0189,-0.0225,-0.0279,-0.0319,-0.0371,-0.0403,-0.0458,-0.0448,-0.0492,-0.0512,-0.0535,-0.0541,-0.0546,-0.0541,-0.0544,-0.0509,-0.051,-0.051,0,-0.0165,-0.014,-0.0131,-0.0122,-0.0124,-0.0137,-0.0133,-0.0154,-0.017,-0.0186,-0.0207,-0.0297,-0.0338,-0.0419,-0.0468,-0.048,-0.0477,-0.0476,-0.0547,-0.055,-0.0553,-0.0547,-0.0549,-0.0514,-0.0514,-0.0513,-0.0513,0,-0.0134,-0.0128,-0.0114,-0.0111,-0.0115,-0.0109,-0.0134,-0.0152,-0.0184,-0.0212,-0.028,-0.0341,-0.0391,-0.0454,-0.0487,-0.0557,-0.0543,-0.055,-0.0516,-0.0566,-0.0557,-0.0558,-0.0521,-0.0519,-0.0518,-0.0517,0,0,-0.0107,-0.0094,-0.0094,-0.0095,-0.011,-0.0104,-0.0138,-0.0162,-0.0181,-0.0243,-0.027,-0.0395,-0.0422,-0.0456,-0.0521,-0.0567,-0.0627,-0.058,-0.0579,-0.0569,-0.0661,-0.0636,-0.0635,-0.066,-0.0661,-0.0661,-0.0653,0,-0.0089,-0.0069,-0.0071,-0.0072,-0.0068,-0.0095,-0.0118,-0.0154,-0.0195,-0.0227,-0.0314,-0.0364,-0.0429,-0.0474,-0.0533,-0.0593,-0.0629,-0.0625,-0.0614,-0.0612,-0.0582,-0.0635,-0.0662,-0.0653,-0.0653,-0.0653,-0.0653,0,-0.0066,-0.0055,-0.0046,-0.0051,-0.005,-0.0059,-0.0089,-0.0111,-0.0169,-0.0203,-0.0269,-0.0318,-0.0408,-0.0446,-0.0549,-0.0549,-0.0597,-0.0641,-0.0642,-0.0572,-0.0589,-0.0587,-0.0654,-0.0654,-0.0654,-0.0654,-0.0654,0,-0.0053,-0.004,-0.003,-0.0033,-0.0044,-0.0051,-0.006,-0.0107,-0.0118,-0.0177,-0.0193,-0.0289,-0.0337,-0.0412,-0.0521,-0.0537,-0.0608,-0.0636,-0.0645,-0.0643,-0.0625,-0.062,-0.0674,-0.0674,-0.0674,-0.0674,-0.0674,0,-0.0038,-0.0038,-0.002,-0.0022,-0.0007,-0.0026,-0.0026,-0.0052,-0.0082,-0.0091,-0.0172,-0.0201,-0.0333,-0.04,-0.0489,-0.0566,-0.0579,-0.0629,-0.0641,-0.0667,-0.0667,-0.0627,-0.0621,-0.0673,-0.0673,-0.0673,-0.0674,0,-0.0044,-0.0037,-0.002,-0.0009,-0.0003,0.0005,0.0015,0.0014,-0.002,-0.0031,-0.0044,-0.0135,-0.0225,-0.0337,-0.0458,-0.0515,-0.0593,-0.0612,-0.0608,-0.0621,-0.0616,-0.0615,-0.0608,-0.0607,-0.0606,-0.0606,-0.0605,0,-0.0049,-0.004,0.0001,0.0023,0.0028,0.0045,0.0057,0.0041,0.0043,0.0007,0.0005,-0.0077,-0.0149,-0.0275,-0.0409,-0.0536,-0.0566,-0.0585,-0.0622,-0.0597,-0.061,-0.061,-0.0611,-0.0604,-0.0604,-0.0603,-0.0603,0,-0.0048,-0.0028,0.0002,0.0047,0.0073,0.0102,0.0117,0.0129,0.011,0.0089,0.0058,-0.0023,-0.0116,-0.0251,-0.035,-0.0452,-0.0565,-0.0577,-0.058,-0.0615,-0.0592,-0.0606,-0.0607,-0.0601,-0.0601,-0.0601,-0.0601,0,-0.003,-0.0002,0.0046,0.0081,0.0115,0.014,0.0151,0.0161,0.0162,0.0127,0.0118,0.0007,-0.0066,-0.0206,-0.0303,-0.0395,-0.0426,-0.0449,-0.0459,-0.0464,-0.044,-0.0391,-0.0335,0,0,0,0,0,-0.0004,0.0034,0.0074,0.0118,0.0145,0.0157,0.0182,0.0187,0.0177,0.0173,0.0149,0.0065,-0.008,-0.0155,-0.0239,-0.0307,-0.0454,-0.0409,-0.0489,-0.0586,-0.0589,-0.0586,0,0,0,0,0,0,0.0025,0.0073,0.0086,0.0131,0.0156,0.0183,0.0198,0.0195,0.0192,0.0174,0.0098,0.0057,-0.0091,-0.003,-0.0237,-0.027,-0.0327,-0.0484,-0.0486,-0.0584,-0.0587,-0.0589,-0.0587,0,0,0,0,0]}]]